Weather Roundup
Issued by NWS

Home | Current Version | Previous Version | Graphics & Text | Print | Product List | Glossary Off
Versions: 1 2 3 4 5 6 7 8 9 10 11 12 13 14 15 16 17 18 19 20 21 22 23 24 25 26 27 28 29 30 31 32 33 34 35 36 37 38 39 40 41 42 43 44 45 46 47 48 49 50

000
NZUS93 KARX 071459
HRRWXR

CURRENT HOURLY OBSERVATIONS ACROSS
MUCH OF THE UPPER MISSISSIPPI VALLEY
NATIONAL WEATHER SERVICE LA CROSSE WI
1000 AM CDT TUE JUL 07 2015


...SOUTHEAST MINNESOTA...


CITY           SKY/WX    TMP DP  RH WIND       PRES   REMARKS
ROCHESTER      CLOUDY    59  46  62 NE16      30.15S
ROCHESTER/MAYO CLOUDY    58  45  61 N14       30.15R
WINONA         PTSUNNY   61  45  55 N5        30.13S
AUSTIN         PTSUNNY   61  46  59 NE12G17   30.14S
ALBERT LEA     PTSUNNY   59  48  67 N10       30.15S
DODGE CENTER   PTSUNNY   57  46  67 N13       30.15S
PRESTON        PTSUNNY   58  46  63 N10G20    30.14R
OWATONNA       PTSUNNY   61  46  59 NE13G18   30.16S
FARIBAULT      NOT AVBL
$$

...ELSEWHERE IN MINNESOTA...


CITY           SKY/WX    TMP DP  RH WIND       PRES   REMARKS
MINNEAPOLIS    MOSUNNY   62  44  51 N9        30.17R
INTNL FALLS    SUNNY     64  45  49 NW6       30.15S
DULUTH         MOSUNNY   62  45  53 N9        30.15S
RED WING       PTSUNNY   63  43  48 E12       30.14S
REDWOOD FALLS  SUNNY     62  46  55 NE10      30.20S
MANKATO        PTSUNNY   59  45  58 N15G22    30.18S
WORTHINGTON    MOSUNNY   57  46  67 NE14      30.20S
FAIRMONT       MOSUNNY   59  45  58 N14       30.18S
$$

...SOUTHWEST WISCONSIN...


CITY           SKY/WX    TMP DP  RH WIND       PRES   REMARKS
LA CROSSE      MOSUNNY   62  46  55 N12       30.11R
PRAIRIE DU CHI MOSUNNY   63  51  64 N9        30.08R
BOSCOBEL       MOSUNNY   65  53  65 N10       30.08R
LONE ROCK      NOT AVBL
PLATTEVILLE    CLOUDY    61  55  83 N12       30.07R
FORT MC COY    MOSUNNY   60  46  61 N10       30.11R
VIROQUA        FAIR      60  50  70 N10       30.10R
WIS DELLS      PTSUNNY   60  52  73 N6        30.06R
$$

...ELSEWHERE IN WISCONSIN...


CITY           SKY/WX    TMP DP  RH WIND       PRES   REMARKS
MILWAUKEE      MOSUNNY   63  49  60 NE17G24   30.01R
MADISON        PTSUNNY   64  55  72 N10       30.04R SMOKE
GREEN BAY      PTSUNNY   65  49  56 N13       30.04R
EAU CLAIRE     NOT AVBL
BLACK RVR FLS  CLOUDY    60  46  59 N8        30.11S
MEDFORD        CLOUDY    55  46  70 N14G21    30.10R
WAUSAU         PTSUNNY   60  44  55 N10G22    30.08R
WIS RAPIDS     PTSUNNY   64  46  52 NE14G21   30.09R
MARSHFIELD     PTSUNNY   60  44  55 N13       30.10R
RICE LAKE      PTSUNNY   60  46  60 N12       30.16R
$$

...NORTHEAST IOWA...


CITY           SKY/WX    TMP DP  RH WIND       PRES   REMARKS
DECORAH          N/A    N/A N/A N/A MISG        N/A
MASON CITY     PTSUNNY   62  49  62 NE16      30.15S
CHARLES CITY   SUNNY     61  48  63 N14G23    30.13S
OELWEIN        MOSUNNY   61  52  72 N13G22    30.10S
$$

...ELSEWHERE IN IOWA...


CITY           SKY/WX    TMP DP  RH WIND       PRES   REMARKS
DES MOINES     MOSUNNY   65  52  62 N13       30.10S
IOWA CITY      MOSUNNY   67  57  70 N14       30.06R HAZE
FORT DODGE     SUNNY     63  48  59 NE9G17    30.16S
$$

...NORTHERN ILLINOIS...


CITY           SKY/WX    TMP DP  RH WIND       PRES   REMARKS
CHICAGO-OHARE  CLOUDY    61  52  72 NE17G26   29.99R
CHICAGO-MIDWAY CLOUDY    62  51  67 N17G26    29.99R
MOLINE         PTSUNNY   68  58  70 N14       30.02R HAZE
ROCKFORD       CLOUDY    65  57  75 E14       30.02R HAZE
PEORIA         CLOUDY    65  61  87 NE12      29.97R FOG
$$

NOTE: "FAIR" INDICATES FEW OR NO CLOUDS BELOW 12,000 FEET WITH NO
SIGNIFICANT WEATHER AND/OR OBSTRUCTIONS TO VISIBILITY. WIND
SPEEDS ARE IN MILES-PER-HOUR.



USA.gov is the U.S. government's official web portal to all federal, state and local government web resources and services.